Location: Unspecified
(64.9000°N, 0.0000°E)
Time: 10:44:22
(UTC+00:00)

Transit 2A Rocket - Pass Details

Date: 25 June 2019
Orbit: 588 x 915 km, 66.7° (Epoch: 18 July)

Event Time Altitude Azimuth Distance (km) Brightness Sun altitude
Rises 16:58:13 0° 302° (WNW) 3,421 9.1 27.9°
Reaches altitude 10° 17:00:52 10° 297° (WNW) 2,436 8.7 27.6°
Maximum altitude 17:06:10 46° 226° (SW) 1,032 6.7 27.0°
Drops below altitude 10° 17:11:01 10° 154° (SSE) 2,215 7.2 26.5°
Sets 17:13:19 0° 148° (SSE) 3,081 7.9 26.3°
